ARG1519 SUMU-SACO

Flight info

Callsign ARG1519
Flight time N/A
Altitude 40000
Route DCT NIMBO UL417 GUA UW2 ROS UW5 ASISA ASISA1U
Aircraft A332/H-SDE3GHIJ2J3J5M1RVWXY/LB2D1

Departure

Time 2026-04-22 22:22
Airport Carrasco General Cesáreo L. Berisso International Airport (SUMU)

Arrival

Time N/A
Airport Ingeniero Aeronáutico Ambrosio L.V. Taravella International Airport (SACO)
Time Latitude Longitude Altitude Speed Heading
2026-04-22 22:10 -34.83570 -56.01731 93 ft 0 kts 143°
2026-04-22 22:14 -34.83562 -56.01738 96 ft 2 kts 143°
2026-04-22 22:14 -34.83540 -56.01758 94 ft 5 kts 129°
2026-04-22 22:14 -34.83521 -56.01792 95 ft 5 kts 105°
2026-04-22 22:15 -34.83523 -56.01812 97 ft 0 kts 52°
2026-04-22 22:16 -34.83513 -56.01796 98 ft 10 kts 52°
2026-04-22 22:16 -34.83510 -56.01792 98 ft 0 kts 50°
2026-04-22 22:18 -34.83508 -56.01790 98 ft 4 kts 49°
2026-04-22 22:18 -34.83437 -56.01776 103 ft 17 kts 336°
2026-04-22 22:18 -34.83302 -56.01839 106 ft 16 kts 18°
2026-04-22 22:18 -34.83216 -56.01721 108 ft 25 kts 53°
2026-04-22 22:19 -34.83104 -56.01539 109 ft 23 kts 54°
2026-04-22 22:19 -34.83007 -56.01379 110 ft 24 kts 53°
2026-04-22 22:19 -34.82904 -56.01210 112 ft 26 kts 53°
2026-04-22 22:19 -34.82806 -56.01140 110 ft 0 kts 351°
2026-04-22 22:21 -34.82796 -56.01141 110 ft 7 kts 351°
2026-04-22 22:21 -34.82718 -56.01220 109 ft 23 kts 274°
2026-04-22 22:21 -34.82840 -56.01446 112 ft 66 kts 232°
2026-04-22 22:21 -34.83293 -56.02189 108 ft 149 kts 234°
2026-04-22 22:22 -34.84028 -56.03397 460 ft 194 kts 235°
2026-04-22 22:22 -34.84895 -56.04811 1263 ft 221 kts 235°
2026-04-22 22:22 -34.85520 -56.05802 2035 ft 227 kts 234°
2026-04-22 22:22 -34.86531 -56.07405 2760 ft 250 kts 234°
2026-04-22 22:23 -34.87580 -56.09111 3834 ft 249 kts 235°
2026-04-22 22:23 -34.88247 -56.11035 4805 ft 254 kts 263°
2026-04-22 22:23 -34.87796 -56.13108 5784 ft 264 kts 302°
2026-04-22 22:23 -34.86300 -56.14449 6748 ft 280 kts 336°
2026-04-22 22:24 -34.84338 -56.14817 7591 ft 291 kts 352°
2026-04-22 22:24 -34.82323 -56.15053 8508 ft 290 kts 345°
2026-04-22 22:24 -34.80389 -56.15686 9477 ft 287 kts 335°
2026-04-22 22:24 -34.78557 -56.16624 10396 ft 285 kts 328°
2026-04-22 22:25 -34.76821 -56.17800 11094 ft 290 kts 321°
2026-04-22 22:25 -34.75231 -56.19407 11467 ft 305 kts 310°
2026-04-22 22:25 -34.73321 -56.22101 11885 ft 331 kts 307°
2026-04-22 22:25 -34.72290 -56.23509 12237 ft 340 kts 310°
2026-04-22 22:26 -34.70591 -56.25495 13359 ft 336 kts 314°
2026-04-22 22:26 -34.68910 -56.27463 14272 ft 336 kts 311°
2026-04-22 22:26 -34.67315 -56.29557 15061 ft 338 kts 309°
2026-04-22 22:26 -34.65687 -56.31636 15912 ft 341 kts 312°
2026-04-22 22:27 -34.63978 -56.33644 16759 ft 343 kts 313°
2026-04-22 22:27 -34.62286 -56.35705 17735 ft 345 kts 311°
2026-04-22 22:27 -34.60634 -56.37829 18771 ft 348 kts 310°
2026-04-22 22:27 -34.58929 -56.39936 19742 ft 352 kts 312°
2026-04-22 22:28 -34.57169 -56.42039 20696 ft 357 kts 311°
2026-04-22 22:28 -34.55419 -56.44207 21650 ft 361 kts 310°
2026-04-22 22:28 -34.53664 -56.46417 22573 ft 367 kts 311°
2026-04-22 22:28 -34.51850 -56.48628 23462 ft 372 kts 311°
2026-04-22 22:29 -34.50120 -56.50969 24197 ft 375 kts 306°
2026-04-22 22:29 -34.48484 -56.53448 24999 ft 377 kts 305°
2026-04-22 22:29 -34.46825 -56.55872 25797 ft 380 kts 307°
2026-04-22 22:29 -34.45084 -56.58308 26560 ft 384 kts 307°
2026-04-22 22:30 -34.43420 -56.60708 26892 ft 359 kts 305°
2026-04-22 22:30 -34.41893 -56.62989 26899 ft 338 kts 305°
2026-04-22 22:30 -34.40437 -56.65135 26905 ft 321 kts 305°
2026-04-22 22:30 -34.39016 -56.67145 26900 ft 306 kts 306°
2026-04-22 22:31 -34.37628 -56.69029 26898 ft 293 kts 307°
2026-04-22 22:31 -34.36281 -56.70798 26899 ft 279 kts 307°
2026-04-22 22:31 -34.34976 -56.72466 26895 ft 266 kts 308°
2026-04-22 22:31 -34.33713 -56.74046 26819 ft 255 kts 308°
2026-04-22 22:32 -34.32498 -56.75537 26802 ft 242 kts 308°
2026-04-22 22:32 -34.31340 -56.76940 26787 ft 227 kts 306°
2026-04-22 22:32 -34.30553 -56.78430 26778 ft 195 kts 276°
2026-04-22 22:32 -34.30655 -56.79936 26560 ft 183 kts 253°
2026-04-22 22:33 -34.31286 -56.81415 25347 ft 219 kts 249°
2026-04-22 22:33 -34.31851 -56.83183 24461 ft 215 kts 278°
2026-04-22 22:33 -34.31321 -56.84719 24569 ft 208 kts 324°
2026-04-22 22:33 -34.29826 -56.85092 24418 ft 243 kts
2026-04-22 22:34 -34.28168 -56.84667 24511 ft 238 kts 346°
2026-04-22 22:34 -34.26747 -56.85192 24234 ft 209 kts 299°
2026-04-22 22:34 -34.26200 -56.86750 24150 ft 200 kts 277°
2026-04-22 22:34 -34.25851 -56.88358 24266 ft 204 kts 309°
2026-04-22 22:35 -34.24564 -56.89209 24098 ft 235 kts 350°
2026-04-22 22:35 -34.22933 -56.88961 24411 ft 230 kts 356°
2026-04-22 22:35 -34.21469 -56.88985 24504 ft 196 kts 315°
2026-04-22 22:35 -34.20721 -56.90271 23495 ft 214 kts 265°
2026-04-22 22:36 -34.21254 -56.92029 23314 ft 218 kts 248°
2026-04-22 22:36 -34.21758 -56.93591 23714 ft 193 kts 283°